Location: Hannover
(52.3723°N, 9.7339°E)
Time: 12:24:08
(UTC+02:00)

Envisat - Visible Passes

Search period start: 25 April 2018 00:00
Search period end: 05 May 2018 00:00
Orbit: 764 x 766 km, 98.2° (Epoch: 24 April)

Date Brightness Start Highest point End Pass type
(mag) Time Alt. Az. Time Alt. Az. Time Alt. Az.
25 Apr 5.6 22:01:37 10° SW 22:05:02 18° W 22:08:27 10° NW visible
26 Apr 4.7 21:23:18 10° SSW 21:27:54 34° W 21:32:31 10° NNW visible
27 Apr 6.0 22:29:47 10° W 22:31:01 11° W 22:32:16 10° WNW visible
28 Apr 5.4 21:49:52 10° SW 21:53:44 22° W 21:57:37 10° NW visible
30 Apr 5.8 22:17:13 10° WSW 22:19:41 13° W 22:22:09 10° NW visible
01 May 5.2 21:38:15 10° SSW 21:42:28 26° W 21:46:43 10° NW visible
03 May 5.6 22:05:11 10° SW 22:08:22 16° W 22:11:33 10° NW visible
04 May 4.9 21:26:43 10° SSW 21:31:13 31° W 21:35:45 10° NNW visible
